[Date Prev][Date Next][Thread Prev][Thread Next] - [Date Index][Thread Index][Author Index]
2 Line ISS Keps 2-19
- Subject: [sarex] 2 Line ISS Keps 2-19
- From: "Dave Larsen PhD" <doc@xxxxxxxxxxx>
- Date: Sat, 19 Feb 2005 01:50:39 -0800
ISS
1 25544U 98067A 05050.14273198 .00029195 00000-0 24157-3 0 8453
2 25544 51.6456 144.6034 0004643 114.6765 318.0901 15.70003854357121
----
Via the sarex mailing list at AMSAT.ORG courtesy of AMSAT-NA.
To unsubscribe, send "unsubscribe sarex" to Majordomo@amsat.org
AMSAT Home